Terminal Aerodrome Forecast
Issued by NWS Columbia, SC

Home | Current Version | Previous Version | Text Only | Print | Product List | Glossary On
Versions: 1 2 3 4 5 6 7 8 9 10 11 12 13 14 15 16 17 18 19 20 21 22 23 24 25 26 27 28 29 30 31 32 33 34 35 36 37 38 39 40 41 42 43 44 45 46 47 48 49 50
000
FTAK31 PAJK 241130
TAFAGS
TAF
PAGS 241130Z 2412/2512 VRB04KT 6SM -RASN BR SCT010 OVC035
      TEMPO 2412/2414 2SM -SNRA OVC010
     FM241400 VRB04KT 1SM -SN VV010
     FM242100 22006KT 6SM -SHSN OVC035
     FM250600 14005KT 4SM -SHSN OVC025
     AMD LTD TO CLD VIS AND WIND=

USA.gov is the U.S. government's official web portal to all federal, state and local government web resources and services.